Location: Opava
(49.9500°N, 17.9170°E)
Time: 20:39:20
(UTC+02:00)

ISS - Visible Passes

Search period start: 16 July 2018 00:00
Search period end: 26 July 2018 00:00
Orbit: 402 x 408 km, 51.6° (Epoch: 17 July)

Date Brightness Start Highest point End Pass type
(mag) Time Alt. Az. Time Alt. Az. Time Alt. Az.
16 Jul -3.6 00:59:18 56° ESE 00:59:18 56° ESE 01:02:09 10° ENE visible
16 Jul -3.4 02:32:09 10° W 02:35:26 63° N 02:38:43 10° E visible
16 Jul -3.8 04:08:46 10° WNW 04:12:04 89° NNE 04:15:23 10° ESE visible
17 Jul -2.1 00:08:35 22° E 00:08:35 22° E 00:10:01 10° E visible
17 Jul -3.6 01:41:12 20° W 01:43:18 70° N 01:46:36 10° ENE visible
17 Jul -3.6 03:16:40 10° WNW 03:19:58 72° N 03:23:16 10° E visible
17 Jul -1.3 23:17:37 11° E 23:17:37 11° E 23:17:47 10° E visible
18 Jul -3.9 00:50:12 42° WSW 00:51:11 85° NNW 00:54:30 10° ENE visible
18 Jul -3.4 02:24:33 10° WNW 02:27:50 64° N 02:31:06 10° E visible
18 Jul -3.8 04:01:06 10° WNW 04:04:21 59° SSW 04:07:36 10° SE visible
18 Jul -4.0 23:58:11 43° SW 23:59:05 72° SSE 00:02:23 10° ENE visible
19 Jul -3.4 01:32:24 10° W 01:35:40 62° N 01:38:56 10° E visible
19 Jul -3.9 03:08:59 10° WNW 03:12:17 83° SSW 03:15:35 10° ESE visible
19 Jul -1.8 21:30:17 10° SSE 21:31:09 11° SE 21:32:02 10° ESE visible
19 Jul -3.7 23:03:51 10° SW 23:07:01 49° SSE 23:10:13 10° ENE visible
20 Jul -3.5 00:40:13 10° W 00:43:30 67° N 00:46:47 10° ENE visible
20 Jul -3.7 02:16:51 10° WNW 02:20:09 77° NNE 02:23:28 10° E visible
20 Jul -3.1 03:53:29 10° W 03:56:30 33° SSW 03:59:30 10° SE visible
20 Jul -3.1 22:12:03 10° SSW 22:15:01 32° SSE 22:17:59 10° E visible
20 Jul -3.8 23:48:03 10° W 23:51:20 79° NNW 23:54:38 10° ENE visible
21 Jul -3.5 01:24:42 10° WNW 01:27:59 66° N 01:31:16 10° E visible
21 Jul -3.7 03:01:16 10° WNW 03:04:28 51° SSW 03:07:40 10° SE visible
21 Jul -4.0 22:55:54 10° WSW 22:59:11 81° SSE 23:02:29 10° ENE visible
22 Jul -3.4 00:32:31 10° W 00:35:47 62° N 00:39:03 10° E visible
22 Jul -4.0 02:09:05 10° WNW 02:12:22 74° SSW 02:15:40 10° ESE visible
22 Jul -2.4 03:46:06 10° W 03:48:28 18° SW 03:50:49 10° S visible
22 Jul -3.8 22:03:51 10° SW 22:07:04 57° SSE 22:10:18 10° ENE visible
22 Jul -3.4 23:40:18 10° W 23:43:35 64° N 23:46:51 10° ENE visible
23 Jul -3.9 01:16:55 10° WNW 01:20:13 84° NNE 01:20:45 60° E visible
23 Jul -3.6 22:48:05 10° W 22:51:22 73° N 22:54:40 10° ENE visible
24 Jul -3.6 00:24:44 10° WNW 00:28:02 69° N 00:29:02 40° E visible
24 Jul -1.3 02:01:18 10° W 02:01:36 12° W 02:01:36 12° W visible
24 Jul -3.9 21:55:53 10° WSW 21:59:10 89° SE 22:02:28 10° ENE visible
24 Jul -3.4 23:32:31 10° W 23:35:47 63° N 23:38:00 19° E visible
25 Jul -2.2 01:09:04 10° WNW 01:10:36 25° W 01:10:36 25° W visible
25 Jul -3.4 22:40:17 10° W 22:43:33 63° N 22:46:49 10° E visible
